Regional Weather Roundup
Issued by NWS State College, PA

Home | Current Version | Previous Version | Graphics & Text | Print | Product List | Glossary Off
Versions: 1 2 3 4 5 6 7 8 9 10 11 12 13 14 15 16 17 18 19 20 21 22 23 24 25 26 27 28 29 30 31 32 33 34 35 36 37 38 39 40 41 42 43 44 45 46 47 48 49 50

000
ASUS41 KCTP 020003
RWRCTP

REGIONAL WEATHER ROUNDUP
NATIONAL WEATHER SERVICE STATE COLLEGE PA
800 PM EDT TUE SEP 01 2015

Note: "fair" indicates few or no clouds below 12,000 feet with no
significant weather and/or obstructions to visibility.

* = STATION THAT DOES NOT REPORT PRECIPITATION /E.G. RAIN...SNOW...ETC/
    THUNDER OR FOG.

PAZ002>004-007>009-013>016-020>023-029>032-020100-
WESTERN PENNSYLVANIA

CITY           SKY/WX    TMP DP  RH WIND       PRES   REMARKS
ERIE           PTCLDY    78  65  63 CALM      30.07R
MEADVILLE      CLEAR     76  65  68 CALM      30.11R
FRANKLIN*      CLEAR     75  64  69 N3        30.12S
NEW CASTLE     FAIR      79  72  79 CALM      30.08S
BEAVER COUNTY  MOCLDY    82  66  57 CALM      30.09R
BUTLER*        MOCLDY    79  66  65 CALM      30.10R
PITTSBURGH INT MOCLDY    82  68  62 W3        30.08R
PITTSBURGH     PTCLDY    82  61  48 W7        30.08R
INDIANA*       CLEAR     79  68  69 CALM      30.12R
LATROBE        PTCLDY    79  66  65 CALM      30.09S
WASHINGTON CO* MOCLDY    73  68  83 CALM      30.10S
$$

PAZ004>006-010>012-017>019-024>028-033>037-041-042-045-046-049>053-020100-
CENTRAL PENNSYLVANIA

CITY           SKY/WX    TMP DP  RH WIND       PRES   REMARKS
BRADFORD       CLEAR     72  63  73 CALM      30.13R
DUBOIS         CLEAR     78  62  57 NW3       30.11R
CLEARFIELD     CLEAR     74  66  76 N5        30.10S
JOHNSTOWN      CLEAR     77  61  57 N5        30.14R
ALTOONA        CLEAR     73  66  78 CALM      30.09S
STATE COLLEGE  CLEAR     77  68  73 CALM      30.07S
WILLIAMSPORT   CLEAR     78  67  68 CALM      30.02R
SELINSGROVE    CLEAR     71  69  93 CALM      30.04R FOG
FT INDIANTOWN  CLEAR     74  66  76 N1        30.04R
CAPITAL CITY   CLEAR     78  66  66 SW3       30.03R
HARRISBURG     PTCLDY    81  69  67 CALM      30.02R
YORK           CLEAR     72  69  90 CALM      30.04R
$$

PAZ038>040-043-044-047-048-054-055-060>062-067>071-020100-
EASTERN PENNSYLVANIA

CITY           SKY/WX    TMP DP  RH WIND       PRES   REMARKS
SCRANTON       CLEAR     76  65  68 SE3       30.05R
MOUNT POCONO   CLEAR     68  63  84 NE3       30.10S
ALLENTOWN      CLEAR     82  64  54 SE3       30.03R
QUAKERTOWN*    CLEAR     77  66  69 CALM      30.04S
READING        CLEAR     81  64  56 W5        30.02R
LANCASTER      CLEAR     79  65  62 CALM      30.03S
COATESVILLE    CLEAR     77  63  61 NW5       30.05S
POTTSTOWN      CLEAR     78  67  68 CALM      30.04R
BLUE BELL      CLEAR     73  68  83 CALM      30.01F
DOYLESTOWN     CLEAR     74  65  73 CALM      30.03R
WILLOW GROVE   NOT AVBL
NORTH PHILA    CLOUDY    83  65  54 SE10      30.04R
PHILADELPHIA   PTCLDY    83  70  64 E9        30.01R
$$


USA.gov is the U.S. government's official web portal to all federal, state and local government web resources and services.